スパール彗星

242P/Spahr (2012)

English version
Home page
Updated on February 21, 2012

---------------------------------------------------------------------

・ プロフィール

符号 242P/2010 P3
検出日 2010年8月14日
検出光度 20.0等
検出者 G. Hug (Scranton, KS, U.S.A.)

・ 写真集

・ 軌道要素

Epoch 2012 Apr. 23.0 TT = JDT 2456040.5
T 2012 Apr. 3.58722 TT                                  MPC
q   3.9799259            (2000.0)            P               Q
n   0.07601941     Peri.  247.68575     +0.36912072     -0.92935320
a   5.5189065      Node   180.77320     +0.91825109     +0.36348578
e   0.2788561      Incl.   32.48283     -0.14340443     -0.06465844
P  13.0
From 313 observations 1997 Oct. 29-2011 Dec. 25, mean residual 0".6.

・ 光度変化

        m1 = 3.0 + 5 logΔ + 20 log r

---------------------------------------------------------------------

軌道要素はM.P.E.C. 2011-Y66に掲載されたものです。
光度グラフはComet for Windowsで作成したものです。

---------------------------------------------------------------------

Copyright(C) Seiichi Yoshida (comet@aerith.net). All rights reserved.